Thunder radar more information blitzortung!


Rain radar more information rain snow radar


Equipment we use:

Davis VP2

Weather Display

BareMetal


Weather Underground History page Text

Daily Summary for April 20, 2019 Units:  Metric    English   Both
« Previous Day
Next Day »
Daily Weekly Monthly Yearly Custom
  Current: High: Low: Average:
Temperature: -13.1 °C -17.8 °C -13.1 °C -12.7 °C
Dew Point: -13.8 °C -17.8 °C -13.9 °C -13.6 °C
Humidity: 91 % Humidity % 87 % 88 %
Wind Speed: 15 km/h 0 km/h 10.3 km/h 21.7 km/h
Wind Gust: 6.4 km/h 0 km/h - -
Wind:WNW - - WNW
Pressure: 34432.2 hPa 0 hPa 34367.9 hPa -
Precipitation: 0 mm      
Historical Graphs
 
 
Tabular Data for April 20, 2019
Time Temperature Dew Point Pressure Wind Wind Speed Wind Gust Humidity Rainfall Rate (Hourly)
-17.8 °C -17.8 °C 0 hPa Calm     Humidity % 0 mm
00:04 -12.1 °C -13.1 °C 34367.9 hPa West 29.8 km/h 6.4 km/h 88 % 0 mm
00:09 -12.1 °C -13.1 °C 34367.9 hPa WSW 18.2 km/h 10.6 km/h 88 % 0 mm
00:14 -12.1 °C -13 °C 34371.3 hPa WNW 17.9 km/h 5.6 km/h 89 % 0 mm
00:19 -12.1 °C -13.1 °C 34371.3 hPa WNW 15 km/h 8.2 km/h 89 % 0 mm
00:24 -12.1 °C -13.1 °C 34374.7 hPa West 15 km/h 14 km/h 89 % 0 mm
00:29 -12.2 °C -13.2 °C 34378.1 hPa WNW 15.6 km/h 8.9 km/h 89 % 0 mm
00:34 -12.2 °C -13.2 °C 34381.4 hPa NW 20.9 km/h 13.2 km/h 89 % 0 mm
00:39 -12.2 °C -13.2 °C 34381.4 hPa NW 18.2 km/h 9.8 km/h 89 % 0 mm
00:44 -12.2 °C -13.2 °C 34384.8 hPa WNW 23.8 km/h 16.9 km/h 89 % 0 mm
00:49 -12.2 °C -13.2 °C 34388.2 hPa WNW 17.9 km/h 10.6 km/h 89 % 0 mm
00:54 -12.2 °C -13.3 °C 34388.2 hPa WNW 10.3 km/h 5.5 km/h 88 % 0 mm
00:59 -12.3 °C -13.3 °C 34391.6 hPa West 26.9 km/h 13.2 km/h 88 % 0 mm
01:04 -12.3 °C -13.3 °C 34391.6 hPa West 17.9 km/h 11.1 km/h 88 % 0 mm
01:09 -12.3 °C -13.3 °C 34395 hPa WNW 23.3 km/h 13.2 km/h 88 % 0 mm
01:14 -12.3 °C -13.3 °C 34395 hPa NW 20.9 km/h 14.8 km/h 88 % 0 mm
01:19 -12.3 °C -13.4 °C 34395 hPa West 23.3 km/h 10.3 km/h 87 % 0 mm
01:24 -12.3 °C -13.4 °C 34395 hPa WNW 11.9 km/h 9.8 km/h 87 % 0 mm
01:29 -12.3 °C -13.4 °C 34395 hPa WNW 20.9 km/h 14.2 km/h 88 % 0 mm
01:34 -12.4 °C -13.4 °C 34395 hPa WNW 28.5 km/h 15 km/h 88 % 0 mm
01:39 -12.4 °C -13.4 °C 34395 hPa WNW 26.9 km/h 8.5 km/h 88 % 0 mm
01:44 -12.4 °C -13.4 °C 34395 hPa WNW 17.9 km/h 11.9 km/h 88 % 0 mm
01:49 -12.4 °C -13.5 °C 34395 hPa NW 23.8 km/h 12.2 km/h 88 % 0 mm
01:54 -12.4 °C -13.5 °C 34395 hPa West 23.8 km/h 14.2 km/h 88 % 0 mm
01:59 -12.4 °C -13.5 °C 34395 hPa NW 15 km/h 11.9 km/h 88 % 0 mm
02:04 -12.5 °C -13.6 °C 34395 hPa WNW 26.9 km/h 12.7 km/h 88 % 0 mm
02:09 -12.5 °C -13.6 °C 34395 hPa NW 20.8 km/h 16.6 km/h 88 % 0 mm
02:14 -12.5 °C -13.6 °C 34395 hPa WNW 23.8 km/h 15.8 km/h 88 % 0 mm
02:19 -12.6 °C -13.6 °C 34395 hPa WNW 20.9 km/h 14.2 km/h 88 % 0 mm
02:24 -12.6 °C -13.6 °C 34395 hPa WNW 23.8 km/h 10.1 km/h 88 % 0 mm
02:29 -12.6 °C -13.7 °C 34401.8 hPa WNW 23.8 km/h 14.2 km/h 88 % 0 mm
02:34 -12.6 °C -13.6 °C 34401.8 hPa NW 29.8 km/h 14.5 km/h 89 % 0 mm
02:39 -12.6 °C -13.6 °C 34405.1 hPa WNW 23.8 km/h 11.9 km/h 89 % 0 mm
02:44 -12.6 °C -13.6 °C 34401.8 hPa WNW 29.8 km/h 13.2 km/h 89 % 0 mm
02:49 -12.6 °C -13.6 °C 34405.1 hPa NW 32.8 km/h 16.6 km/h 89 % 0 mm
02:54 -12.6 °C -13.6 °C 34405.1 hPa NW 23.8 km/h 15.3 km/h 89 % 0 mm
02:59 -12.7 °C -13.7 °C 34405.1 hPa NW 15 km/h 12.7 km/h 88 % 0 mm
03:04 -12.7 °C -13.8 °C 34408.5 hPa NW 20.9 km/h 9.3 km/h 88 % 0 mm
03:09 -12.7 °C -13.8 °C 34408.5 hPa NW 20.9 km/h 9.8 km/h 88 % 0 mm
03:14 -12.7 °C -13.8 °C 34408.5 hPa NW 20.9 km/h 16.1 km/h 88 % 0 mm
03:19 -12.7 °C -13.7 °C 34408.5 hPa WNW 15 km/h 9.8 km/h 89 % 0 mm
03:24 -12.7 °C -13.7 °C 34408.5 hPa NW 20.9 km/h 13.2 km/h 89 % 0 mm
03:29 -12.7 °C -13.7 °C 34408.5 hPa WNW 15 km/h 9.7 km/h 89 % 0 mm
03:34 -12.7 °C -13.7 °C 34408.5 hPa West 23.8 km/h 14.8 km/h 89 % 0 mm
03:39 -12.7 °C -13.7 °C 34411.9 hPa NW 25.9 km/h 19.6 km/h 89 % 0 mm
03:44 -12.7 °C -13.7 °C 34415.3 hPa WNW 20.9 km/h 8.2 km/h 89 % 0 mm
03:49 -12.7 °C -13.8 °C 34415.3 hPa NW 18.2 km/h 12.9 km/h 88 % 0 mm
03:54 -12.7 °C -13.7 °C 34418.7 hPa NW 20.9 km/h 15.3 km/h 89 % 0 mm
03:59 -12.7 °C -13.7 °C 34418.7 hPa WNW 20.9 km/h 8.9 km/h 89 % 0 mm
04:04 -12.7 °C -13.7 °C 34418.7 hPa NNW 26.9 km/h 12.4 km/h 89 % 0 mm
04:09 -12.7 °C -13.8 °C 34422.1 hPa NW 29.8 km/h 20 km/h 88 % 0 mm
04:14 -12.7 °C -13.7 °C 34422.1 hPa West 32.8 km/h 14.5 km/h 89 % 0 mm
04:19 -12.7 °C -13.7 °C 34422.1 hPa WNW 23.8 km/h 15 km/h 89 % 0 mm
04:25 -12.7 °C -13.7 °C 34422.1 hPa WNW 26.9 km/h 19.5 km/h 89 % 0 mm
04:29 -12.7 °C -13.7 °C 34425.5 hPa WNW 29.8 km/h 14.8 km/h 89 % 0 mm
04:34 -12.8 °C -13.7 °C 34425.5 hPa WNW 20.9 km/h 10.9 km/h 89 % 0 mm
04:39 -12.8 °C -13.7 °C 34425.5 hPa WNW 26.9 km/h 13.2 km/h 89 % 0 mm
04:44 -12.8 °C -13.8 °C 34422.1 hPa West 15.6 km/h 7.6 km/h 89 % 0 mm
04:49 -12.8 °C -13.8 °C 34422.1 hPa WNW 28.5 km/h 18.2 km/h 89 % 0 mm
04:54 -12.8 °C -13.7 °C 34425.5 hPa WNW 26.9 km/h 9.7 km/h 90 % 0 mm
04:59 -12.9 °C -13.7 °C 34428.8 hPa WNW 20.9 km/h 11.1 km/h 90 % 0 mm
05:04 -12.9 °C -13.7 °C 34428.8 hPa West 23.3 km/h 14 km/h 90 % 0 mm
05:09 -12.9 °C -13.7 °C 34428.8 hPa WSW 23.8 km/h 14.5 km/h 90 % 0 mm
05:14 -12.9 °C -13.8 °C 34428.8 hPa West 17.9 km/h 14.8 km/h 90 % 0 mm
05:19 -12.9 °C -13.8 °C 34428.8 hPa NW 18.2 km/h 14.2 km/h 90 % 0 mm
05:24 -12.9 °C -13.8 °C 34428.8 hPa West 17.9 km/h 12.2 km/h 90 % 0 mm
05:29 -12.9 °C -13.8 °C 34428.8 hPa WNW 20.9 km/h 16.6 km/h 90 % 0 mm
05:34 -12.9 °C -13.8 °C 34432.2 hPa WNW 20.9 km/h 15.8 km/h 90 % 0 mm
05:39 -13 °C -13.8 °C 34428.8 hPa WNW 23.8 km/h 11.6 km/h 90 % 0 mm
05:44 -13 °C -13.8 °C 34435.6 hPa WNW 17.9 km/h 9 km/h 90 % 0 mm
05:49 -13 °C -13.9 °C 34432.2 hPa WNW 29.8 km/h 15.8 km/h 90 % 0 mm
05:54 -13 °C -13.9 °C 34435.6 hPa WNW 26.9 km/h 9.7 km/h 90 % 0 mm
05:59 -13.1 °C -13.9 °C 34432.2 hPa NW 20.9 km/h 4.3 km/h 90 % 0 mm
06:04 -13.1 °C -13.8 °C 34432.2 hPa WNW 15 km/h 6.4 km/h 91 % 0 mm
Ladner Weather
Compliments of Weather Underground - 1.75 mb

Script developed by  Jim McMurry - jmcmurry@mwt.net Adapted for the template by  Wim van der Kuil - Leuven-Template.eu